GEFSCGP_500_meanwind_282.txt.gz
Wind_Speed
29 29 28 28 29 30 31 31 31 31 32 33 33 33 34 34 34 34 34 35 35 35 36 36 37 37 38 38 38 38 38 39 39 40 40 40 40 41 42 42 42 43 43 43
31 30 29 30 30 31 32 32 31 31 32 34 35 35 34 35 35 35 35 35 35 36 37 37 37 38 38 39 39 40 40 40 40 41 41 41 42 42 43 44 45 45 45 45
33 31 31 32 32 32 33 33 32 33 33 35 36 35 35 35 35 36 36 36 36 37 37 38 38 39 40 40 40 41 41 42 42 42 42 42 43 43 44 45 46 47 47 47
33 33 33 33 33 33 34 33 34 34 35 36 36 37 34 35 36 35 35 36 36 37 38 38 39 39 40 41 41 41 42 42 43 43 43 44 44 45 46 47 47 47 47 47
33 33 33 34 33 34 34 34 34 35 36 37 37 39 35 34 35 35 35 35 36 37 38 39 39 39 40 41 41 42 42 43 43 44 45 45 45 46 46 47 47 47 47 48
34 34 34 34 34 34 35 35 36 37 37 39 36 39 37 34 35 35 36 36 36 36 37 37 38 39 40 40 41 42 42 43 44 45 45 46 46 47 47 47 47 48 48 48
34 34 34 34 34 35 36 36 37 38 39 39 37 39 39 35 35 36 37 37 37 38 38 38 38 38 38 39 40 41 42 43 44 45 45 46 46 46 46 46 47 47 48 48
35 34 34 34 34 35 35 36 37 39 40 39 38 39 38 36 35 35 36 36 37 37 37 37 37 37 38 38 39 40 41 42 43 44 45 46 46 46 45 46 46 47 48 48
34 35 34 34 34 35 36 36 36 38 40 41 41 40 38 36 35 35 35 35 35 36 36 37 37 38 38 39 39 39 40 40 41 42 43 44 45 46 46 46 46 47 48 49
34 35 34 34 35 35 36 35 35 37 40 42 43 41 39 37 37 36 35 35 35 35 36 37 38 38 38 39 39 40 40 41 41 43 43 43 44 45 45 46 47 47 47 48
33 34 33 34 34 34 34 35 36 37 39 41 43 41 38 37 37 36 36 35 35 36 36 37 38 38 38 39 40 40 40 41 41 42 43 43 44 45 45 46 46 46 47 48
33 34 35 34 33 34 35 35 36 38 39 40 42 41 39 38 37 36 36 36 36 36 37 38 38 38 38 39 40 40 41 41 41 42 42 43 43 44 45 46 46 47 48 48
32 34 35 34 34 34 35 35 36 38 40 41 41 40 38 37 36 36 37 37 37 37 37 37 37 37 38 38 39 40 41 41 42 42 42 43 44 44 45 46 46 47 48 49
32 34 34 35 35 35 35 35 36 38 39 40 39 38 36 36 36 36 37 37 38 37 37 37 37 38 38 38 38 39 40 41 42 42 42 43 43 44 45 46 46 47 48 49
33 34 34 34 34 35 35 35 36 37 38 39 37 37 35 35 35 35 35 36 36 35 35 36 37 37 38 38 38 39 40 41 42 42 42 43 44 44 45 46 46 47 48 49
34 34 33 33 33 35 35 35 35 36 36 37 37 36 35 35 36 36 35 35 35 35 36 36 36 37 38 38 39 40 40 41 42 42 43 44 44 44 45 46 47 48 48 48
33 33 33 33 33 36 35 34 35 35 36 37 37 36 35 36 36 35 35 35 35 36 36 36 36 37 38 38 39 40 40 41 42 43 43 44 44 45 46 46 47 47 47 47
32 32 34 34 33 35 33 34 35 36 35 36 37 36 35 35 35 35 35 35 35 35 36 36 36 37 37 37 38 39 39 40 41 42 43 44 44 45 46 47 47 46 46 46
31 32 33 34 35 35 33 34 35 36 35 35 35 35 35 35 36 35 35 35 35 36 36 36 37 37 37 37 38 39 39 39 40 41 42 43 44 45 46 46 45 45 46 46
30 31 32 34 36 36 34 34 34 36 36 35 34 34 35 35 36 36 36 36 36 36 37 37 37 38 38 38 38 39 39 40 41 41 42 43 43 44 44 44 44 44 45 45
29 30 31 32 34 35 34 33 33 34 34 34 34 34 35 35 36 36 36 36 37 37 37 37 38 38 38 38 39 39 40 40 41 42 42 42 43 43 43 43 43 43 43 44
29 30 30 31 33 33 33 33 33 33 33 34 35 35 34 34 35 36 36 36 37 37 37 37 38 38 38 39 39 40 40 40 41 42 42 42 42 42 42 42 42 42 42 42
28 29 29 30 31 31 31 32 33 33 33 34 34 34 34 34 35 36 36 36 36 37 37 37 38 38 39 39 39 39 39 40 40 40 40 40 40 40 40 40 40 40 41 41
28 29 30 30 29 29 30 30 31 32 33 33 33 33 33 33 34 34 35 36 36 36 37 37 37 37 37 38 38 38 38 38 38 38 39 39 39 39 39 39 39 39 40 40
28 28 29 29 29 30 30 31 31 31 32 32 32 32 33 33 33 34 34 34 35 35 36 36 37 37 37 37 37 37 37 37 37 37 37 37 37 37 37 38 38 38 39 39
29 29 29 29 29 30 30 30 30 30 30 30 31 32 32 32 32 33 33 34 34 35 35 35 35 36 36 36 36 36 36 37 37 37 37 37 37 37 37 36 36 37 37 38

GEFSCGP_500_meanwind_288.txt.gz
Wind_Speed
32 33 33 32 32 33 33 34 34 34 34 35 36 36 35 35 35 35 35 35 35 36 37 38 38 39 39 39 40 40 40 41 41 41 40 41 41 41 41 41 41 41 41 41
33 33 33 33 34 34 35 35 35 35 36 37 37 37 36 36 35 35 35 35 36 37 38 39 39 39 40 41 40 40 41 41 42 42 42 43 42 42 42 42 42 43 43 43
34 33 34 35 34 35 36 36 35 36 37 38 40 39 37 37 36 36 36 36 37 37 38 39 40 40 41 41 41 41 42 43 43 43 44 43 43 43 43 43 43 44 44 44
34 34 34 35 35 36 36 36 37 38 38 39 40 42 37 38 38 37 37 37 38 38 39 39 40 41 41 41 42 42 43 43 44 44 44 44 44 44 44 44 44 45 45 45
35 35 35 36 35 36 37 37 38 39 40 41 40 43 39 38 38 38 38 38 39 39 39 40 40 41 41 42 42 42 43 43 44 44 44 44 44 44 45 45 45 45 46 46
36 36 36 36 36 37 38 39 40 41 42 43 40 42 40 37 37 37 38 39 39 40 40 40 40 41 41 42 42 42 43 43 44 44 44 44 44 44 45 45 45 45 46 46
37 37 37 37 37 38 39 40 41 42 43 43 41 43 41 38 37 38 38 39 39 39 40 40 41 41 41 42 42 42 42 43 43 42 42 43 43 44 44 45 46 46 46 47
37 37 37 37 37 38 39 40 41 42 44 43 42 43 41 39 38 38 38 38 38 39 40 40 41 41 41 41 42 42 42 42 42 41 42 42 43 44 44 45 46 46 47 48
37 37 36 36 36 37 38 39 39 41 43 44 44 43 40 38 38 38 38 38 38 38 39 39 40 40 41 42 42 41 41 41 42 42 41 42 43 44 44 45 46 47 48 48
36 38 36 36 36 36 37 38 38 40 42 44 44 43 41 38 38 38 37 37 37 38 38 38 38 39 40 41 41 41 41 41 42 42 42 42 43 44 45 45 46 46 47 48
36 38 38 37 36 36 36 37 38 40 42 44 44 42 40 38 37 37 37 37 37 37 38 38 38 39 40 41 41 41 42 42 42 43 43 43 43 44 44 45 46 46 47 47
35 38 38 38 38 37 37 37 38 40 41 43 44 42 39 38 38 38 37 38 38 37 37 37 37 38 39 40 41 41 42 42 42 43 43 44 44 44 44 45 46 47 47 47
35 37 38 38 38 38 38 37 37 39 40 42 43 41 39 39 38 38 37 38 38 37 37 37 37 37 38 39 40 40 41 42 43 43 44 44 45 45 45 46 46 47 47 47
35 36 37 38 38 38 38 38 38 40 41 42 42 40 38 39 39 39 39 39 39 39 38 38 38 38 38 38 39 39 40 42 42 43 44 44 45 45 46 46 46 46 47 47
35 36 37 37 38 38 38 38 38 40 41 42 41 40 38 39 39 39 40 40 40 39 38 38 38 39 39 39 39 40 40 41 42 42 43 44 45 46 46 46 46 47 47 48
36 37 37 37 37 38 39 38 39 39 40 41 41 40 39 39 39 39 39 39 39 39 39 38 39 39 39 39 40 40 40 40 40 41 42 43 44 45 46 46 47 47 48 48
38 38 39 38 37 38 39 37 38 39 40 41 41 40 39 39 38 38 38 37 37 37 37 37 38 38 39 39 39 39 39 39 39 40 41 42 42 43 44 45 47 47 48 48
36 36 38 38 38 38 36 36 37 38 39 40 41 40 40 38 38 37 37 36 36 36 36 37 37 37 38 38 38 38 38 39 39 40 41 41 41 42 43 44 46 47 47 47
34 34 35 36 37 37 35 35 35 36 36 37 38 38 38 37 37 36 36 35 35 36 36 37 36 36 37 37 37 38 39 39 39 40 40 41 41 42 43 44 45 45 46 46
32 32 32 33 35 36 34 33 34 35 35 34 35 36 36 37 37 35 35 35 36 36 36 37 37 37 37 37 37 38 38 38 38 39 39 40 41 42 43 44 44 45 46 46
30 30 31 32 34 35 34 33 33 33 33 32 33 34 35 36 36 35 35 35 35 35 36 36 37 37 37 37 37 37 37 37 37 38 39 40 41 41 42 43 44 45 45 45
29 29 30 31 32 32 32 33 33 33 33 33 33 33 34 34 34 34 35 35 36 35 36 36 36 36 36 37 37 37 37 38 38 39 39 40 40 41 42 43 44 44 44 43
28 28 29 30 31 32 32 33 33 33 33 34 34 34 33 33 34 34 35 35 36 36 36 37 36 36 36 36 37 37 38 38 39 39 39 40 40 41 42 42 42 42 42 42
27 28 30 31 32 32 32 33 33 33 34 34 34 34 34 34 34 35 35 36 37 37 37 37 37 36 36 36 36 36 37 38 39 39 39 39 39 40 40 39 39 40 40 41
28 29 30 31 31 32 32 33 33 33 34 34 35 35 34 34 34 34 34 34 36 37 37 37 37 36 36 36 36 36 36 37 37 37 38 38 37 38 38 38 38 39 39 39
29 30 31 30 30 31 32 33 33 34 34 35 34 34 34 33 33 33 33 34 35 35 35 35 35 35 35 35 35 35 35 36 36 36 37 37 36 37 37 37 37 37 37 38

GEFSCGP_500_meanwind_294.txt.gz
Wind_Speed
31 32 32 32 33 33 34 34 34 33 34 35 35 35 34 35 35 35 35 36 36 36 37 37 38 38 38 38 39 39 40 40 40 40 40 40 40 40 41 42 42 42 42 42
32 32 32 33 33 34 35 35 35 36 36 37 37 36 35 35 35 34 35 36 36 37 37 38 38 38 38 39 39 40 40 41 41 41 41 41 41 41 41 41 42 42 43 43
33 32 33 34 34 35 35 36 36 37 37 38 38 38 36 36 36 36 36 36 37 37 37 38 38 38 39 39 39 40 41 41 42 42 43 42 42 42 42 42 42 43 44 44
33 33 34 35 35 35 36 36 37 37 38 39 39 40 36 36 36 36 36 36 37 37 38 38 38 38 39 38 39 40 41 42 42 42 43 43 43 42 42 43 43 44 44 45
33 33 34 34 34 35 36 36 37 38 39 40 40 41 37 36 36 36 36 37 37 38 38 38 38 39 39 39 40 41 41 42 42 42 43 44 44 43 43 43 43 44 44 44
32 33 33 34 35 35 36 36 37 39 40 42 40 41 39 36 35 35 37 37 38 38 39 39 39 39 40 40 40 41 41 42 42 43 44 44 44 44 43 43 43 43 44 44
31 32 33 34 35 35 35 35 36 38 40 41 40 41 39 36 35 36 37 38 38 38 38 39 39 40 41 41 41 41 41 42 42 43 44 44 44 43 43 43 43 43 43 43
31 31 32 33 34 35 36 36 36 38 40 41 40 40 39 37 36 36 37 38 38 38 38 38 39 40 40 41 41 41 42 42 43 43 43 43 43 44 43 43 43 43 42 42
30 31 32 33 34 34 36 36 36 38 40 41 41 40 38 36 36 36 36 37 37 38 39 38 38 39 40 41 41 42 42 42 43 43 43 44 44 43 43 43 43 43 43 43
30 31 31 33 33 34 35 35 36 37 40 41 42 40 38 37 36 36 36 36 36 37 38 39 39 39 39 40 41 41 42 42 43 43 43 44 44 44 44 44 44 44 45 45
31 31 32 33 33 34 34 35 36 38 39 40 42 41 38 37 37 37 37 36 36 36 37 38 39 39 39 39 40 40 41 41 41 42 42 43 44 44 44 44 44 45 45 46
30 31 32 32 33 34 35 35 36 37 38 39 40 40 38 38 37 37 36 36 36 36 37 37 38 38 39 39 40 40 41 41 41 41 42 43 44 44 44 44 44 45 46 46
31 32 33 33 33 34 35 35 36 38 39 39 40 39 38 38 38 37 36 35 35 36 36 36 37 37 37 38 39 40 40 41 41 41 42 43 43 43 44 45 45 46 47 47
31 33 33 34 34 33 34 35 35 37 39 40 39 38 37 37 37 37 37 37 37 36 36 36 36 37 38 38 38 39 40 40 40 41 41 42 42 42 43 45 46 47 47 47
31 33 33 33 33 33 34 34 35 37 38 39 38 37 36 36 36 36 36 37 37 37 37 37 37 38 38 39 39 39 39 40 40 40 40 41 41 42 43 44 45 45 45 46
32 33 33 33 32 33 34 33 34 36 36 38 38 38 37 37 37 37 36 37 38 38 38 38 38 39 39 39 38 39 39 39 40 40 41 41 42 42 43 43 43 43 44 45
31 33 35 34 34 34 34 32 33 34 34 35 36 36 37 37 38 38 38 38 37 37 37 37 38 38 38 39 39 39 39 39 40 40 40 41 41 41 42 42 43 43 44 45
30 31 32 33 33 34 33 33 33 33 33 34 35 35 36 37 37 37 38 38 37 37 37 37 37 37 37 38 38 39 40 40 40 40 40 40 41 41 42 42 42 44 45 46
30 30 31 31 32 33 32 31 31 32 32 33 34 34 35 36 36 36 37 37 37 37 37 37 37 37 38 38 38 38 38 39 39 39 39 39 40 41 42 42 43 44 44 45
28 28 29 29 30 31 30 30 30 31 32 31 32 33 34 35 36 35 36 36 36 36 36 37 37 37 37 37 36 36 37 37 37 37 38 39 40 41 41 42 42 43 43 44
27 28 28 28 28 29 29 29 29 30 31 31 31 32 33 33 34 34 34 34 34 34 35 35 35 35 35 35 36 36 36 36 37 37 37 38 38 39 40 40 41 41 41 42
26 27 28 28 28 29 28 28 28 29 30 30 31 31 31 32 32 32 33 33 33 33 33 33 34 34 34 34 34 35 35 35 36 36 36 36 37 37 38 38 39 39 40 42
25 25 25 26 27 28 28 28 28 29 29 30 30 30 30 30 30 31 31 32 32 32 33 33 33 33 33 33 34 34 35 35 36 36 36 36 36 37 37 38 38 40 41 42
25 25 26 26 26 27 27 28 28 28 29 30 30 31 31 30 30 31 31 31 31 31 32 32 32 32 32 33 33 34 35 35 36 36 36 36 37 37 37 37 38 39 40 41
25 25 26 27 27 27 27 28 28 29 30 30 31 31 32 31 31 31 30 30 31 31 31 30 30 31 31 32 33 34 35 35 35 36 36 36 36 37 37 37 38 38 39 39
24 25 26 26 27 27 27 28 29 29 30 31 31 31 31 31 31 31 30 30 30 30 30 31 31 31 31 31 32 33 34 34 34 35 35 36 36 36 37 37 37 37 37 37

GEFSCGP_500_meanwind_300.txt.gz
Wind_Speed
33 34 34 34 34 35 36 38 38 38 38 39 39 38 38 39 38 38 38 39 39 39 39 39 40 40 40 40 40 40 40 39 39 40 40 41 41 42 42 43 42 42 42 41
34 35 33 34 36 36 37 38 39 39 39 41 41 40 39 39 39 39 39 39 39 39 39 40 40 40 41 40 40 40 41 41 41 41 41 41 42 42 42 43 43 43 42 42
35 34 34 35 36 36 37 38 38 39 39 40 41 41 39 39 39 39 39 39 40 40 40 40 40 40 40 40 40 40 41 41 42 42 42 42 43 43 43 42 43 43 43 42
33 33 34 35 36 36 37 37 38 39 40 41 41 42 39 39 40 39 39 40 40 40 41 41 40 40 40 40 40 40 41 42 42 42 42 42 43 43 43 43 43 44 44 43
32 33 34 35 36 36 37 37 38 39 40 41 40 42 40 39 38 38 38 39 40 40 40 40 40 40 40 40 40 41 41 42 42 43 43 43 43 43 43 44 43 44 44 43
31 32 33 34 34 36 36 36 37 39 39 41 39 40 40 38 36 36 37 38 39 39 40 40 40 40 41 41 41 41 42 42 43 43 43 43 43 43 43 43 43 44 44 44
30 31 32 33 33 34 34 35 36 37 39 40 38 39 39 38 37 36 36 37 38 38 38 39 39 40 41 41 41 42 42 42 42 43 43 43 43 43 43 43 44 44 44 44
29 30 30 32 32 33 33 34 36 37 38 38 37 38 38 38 37 37 37 37 37 38 38 40 40 40 41 42 42 42 42 42 42 42 42 42 43 43 43 43 44 44 44 44
28 29 29 30 31 32 33 33 34 36 37 38 39 38 38 38 38 38 38 38 38 38 39 40 40 41 41 42 42 42 42 42 42 42 42 42 42 42 43 43 44 44 45 45
29 29 28 30 31 32 32 33 33 35 37 38 39 38 39 39 38 38 38 38 39 39 39 40 40 41 41 42 42 42 43 43 43 42 42 42 42 43 43 43 44 44 45 45
29 30 29 30 31 32 32 32 33 34 36 37 39 39 39 40 40 39 39 39 39 39 39 39 40 40 40 41 42 42 42 42 42 42 42 42 42 43 43 43 43 44 44 45
29 30 30 31 31 31 33 33 33 34 35 37 38 39 38 39 40 39 39 39 40 39 39 39 39 39 39 40 41 42 42 42 42 42 42 42 42 43 43 44 44 44 44 44
28 29 30 31 33 33 34 33 34 34 36 36 38 40 39 39 39 39 39 39 39 40 39 39 39 39 39 40 41 41 41 42 42 42 41 42 42 43 43 44 44 43 44 44
29 29 30 31 32 33 34 34 34 35 36 37 37 38 38 39 39 39 39 38 39 39 39 40 40 40 40 40 40 41 41 41 41 41 41 42 42 43 43 43 43 43 43 44
30 31 31 31 31 32 33 33 34 35 36 36 36 37 37 36 38 38 38 38 39 39 39 39 40 40 40 40 40 40 41 41 41 41 42 42 42 43 43 43 43 44 44 43
31 32 32 32 32 32 33 33 34 35 36 37 37 36 36 36 36 36 37 37 38 38 38 39 39 39 39 40 40 40 40 41 42 42 42 42 42 42 43 43 44 44 43 43
32 33 34 34 33 34 34 34 35 36 36 37 37 36 37 37 36 35 36 36 37 37 37 38 38 38 39 39 39 39 40 41 41 41 41 42 42 42 42 43 43 44 43 43
31 32 33 33 33 35 34 34 35 36 36 36 36 36 37 38 37 37 37 36 37 37 37 37 38 38 39 39 39 39 40 40 41 41 40 41 41 42 42 42 43 43 43 43
29 30 30 31 32 34 33 33 34 35 34 34 35 35 36 37 38 38 37 37 37 37 38 38 38 38 38 38 38 38 39 39 40 40 41 41 41 42 42 43 43 43 43 44
28 28 30 30 30 31 31 31 32 33 33 33 33 34 35 36 37 37 37 37 38 38 38 38 38 38 37 37 36 37 37 38 39 40 40 40 41 42 42 42 42 43 42 42
27 28 28 28 29 30 30 31 32 32 33 33 33 34 34 35 36 37 37 37 37 38 38 38 38 37 36 36 36 36 37 37 38 39 39 39 39 39 40 40 41 41 41 41
26 27 28 28 28 29 29 31 31 31 32 32 33 33 33 34 34 35 35 36 36 37 37 37 37 37 36 36 36 36 36 36 37 38 38 38 38 38 38 39 40 40 40 40
25 26 27 27 27 27 28 29 30 31 31 31 31 32 32 33 34 35 35 35 36 35 35 36 36 35 35 35 36 36 35 35 36 37 37 37 38 38 38 38 38 38 39 39
26 27 27 28 27 27 28 28 29 30 31 31 32 32 32 32 33 34 35 35 35 34 34 33 33 33 34 34 35 35 35 35 35 35 35 36 37 37 37 37 37 38 38 38
25 26 26 26 26 27 27 29 30 30 31 31 31 31 31 32 33 33 33 33 34 34 34 33 32 32 32 33 33 34 34 35 35 35 36 36 36 36 37 37 37 38 37 38
25 25 25 25 25 26 26 28 28 29 30 30 31 31 32 32 32 32 32 32 32 32 32 32 32 32 32 32 32 33 34 34 35 35 35 35 35 36 36 37 37 38 38 38

GEFSCGP_500_meanwind_306.txt.gz
Wind_Speed
34 35 35 36 36 37 37 38 37 37 38 39 40 39 37 38 39 39 38 38 38 37 37 38 38 38 39 39 39 39 39 39 39 39 39 39 40 40 40 40 40 40 41 41
34 34 34 35 37 38 38 40 39 38 38 40 40 39 38 38 38 39 39 39 38 38 38 38 38 39 39 39 39 40 40 40 40 40 40 40 40 40 41 41 41 41 41 42
32 32 32 33 35 37 38 39 38 38 39 40 41 40 38 38 39 40 40 39 39 39 39 39 39 39 39 40 40 41 41 41 41 41 41 41 41 41 41 41 41 41 42 42
29 29 30 32 33 36 37 37 38 38 39 40 41 42 38 39 39 40 40 40 39 40 40 39 39 39 39 40 41 41 42 42 42 42 42 42 42 42 42 42 42 42 42 42
27 27 28 29 31 33 35 35 36 37 38 40 40 42 39 39 39 39 39 40 39 39 39 39 39 39 40 40 41 42 42 42 43 43 43 42 42 43 43 43 43 42 42 42
27 27 27 27 28 30 32 34 35 36 37 40 39 41 40 38 37 37 38 39 38 38 39 39 39 39 39 40 41 42 42 42 43 43 43 43 43 43 43 43 43 43 43 43
26 27 27 27 27 29 30 31 33 34 35 37 37 39 40 38 36 37 37 37 37 38 38 39 39 40 40 40 41 42 42 42 42 43 43 43 43 43 43 44 44 43 43 43
25 25 26 26 26 27 28 29 32 34 35 36 36 38 38 37 37 37 37 37 37 37 38 38 39 39 40 40 41 41 42 42 43 43 43 44 44 43 43 44 44 44 44 44
25 25 24 25 25 25 27 28 29 32 34 35 35 37 36 36 36 36 36 36 37 37 37 37 38 38 39 40 41 42 42 43 43 43 44 44 44 44 44 44 44 44 44 44
25 25 24 25 27 26 26 28 29 31 33 35 34 34 35 34 34 35 35 35 35 36 36 36 36 37 38 39 40 42 42 43 44 44 44 44 44 45 45 45 45 44 44 44
26 27 26 26 27 27 27 27 30 31 32 34 36 34 33 33 33 34 34 35 35 35 35 36 37 37 38 39 40 41 42 42 43 43 43 44 44 45 44 44 44 44 44 44
26 27 27 27 26 27 27 27 29 31 32 33 34 34 33 34 33 34 34 34 35 36 36 36 37 37 37 38 40 41 41 41 42 43 43 43 44 44 44 44 44 44 44 44
26 27 28 27 27 27 27 27 29 30 32 33 33 33 32 32 33 34 35 35 35 36 36 36 37 37 37 38 39 40 40 40 41 42 42 43 43 43 44 44 45 45 45 45
28 28 27 27 26 28 28 28 29 30 32 33 32 32 32 32 32 33 34 35 36 36 37 37 38 38 38 38 38 39 39 40 41 41 41 42 43 43 43 43 44 45 45 45
29 29 28 28 27 28 29 30 30 30 31 33 32 32 32 33 33 32 33 34 35 36 37 37 37 38 38 39 38 38 39 40 41 41 41 42 42 42 42 42 43 44 45 46
29 30 30 30 30 29 29 29 29 30 31 32 32 32 32 33 34 33 33 34 34 35 36 36 37 37 38 38 38 38 39 40 40 41 41 41 41 41 41 42 43 43 44 44
28 29 30 30 29 29 28 28 28 29 31 31 32 31 31 32 33 34 34 34 34 34 35 35 35 35 36 37 37 37 38 38 39 40 40 40 40 41 41 42 42 42 43 43
27 28 29 29 29 30 28 28 28 29 29 30 31 31 31 32 32 33 33 33 33 34 34 35 35 35 35 35 36 36 37 37 37 37 39 40 41 41 42 42 42 42 42 43
25 26 27 28 28 29 28 28 27 27 27 28 30 30 31 31 32 33 33 34 34 33 34 35 36 36 36 36 35 36 36 36 37 37 38 39 40 41 42 42 42 41 41 42
25 26 27 27 28 28 27 27 27 27 27 28 29 30 31 31 32 32 34 35 35 35 35 35 35 35 35 35 35 36 36 37 37 38 38 38 39 39 40 41 42 41 41 41
24 25 26 26 27 27 27 27 28 28 28 28 29 30 30 31 31 32 33 35 36 36 36 35 35 35 36 36 36 37 37 37 37 37 37 38 38 38 39 40 40 41 41 41
24 25 26 27 27 26 26 26 27 28 28 29 29 29 30 30 31 31 32 33 34 35 36 36 36 36 36 37 37 37 37 37 37 37 37 37 37 38 38 39 39 39 39 40
24 25 26 26 26 26 26 27 27 28 28 28 29 30 31 31 31 31 31 32 32 33 34 34 35 35 36 36 37 37 37 37 37 37 37 37 37 37 37 37 37 38 39 39
24 25 25 25 24 25 26 26 27 27 27 28 29 30 30 30 31 31 31 31 31 32 32 32 33 33 34 35 36 37 38 38 38 37 36 36 36 37 37 37 37 37 37 38
25 26 26 25 23 24 25 26 26 26 27 27 28 28 29 29 29 30 30 30 30 31 31 32 32 32 33 34 35 35 35 35 36 37 37 37 37 37 37 37 38 37 38 38
25 25 25 25 25 25 25 25 26 26 27 27 27 28 28 28 29 29 29 30 29 29 29 31 32 32 32 32 33 33 33 33 33 34 35 36 37 37 37 38 38 38 38 39